KD8BMB Weather Reports


time (UTC)temp
F
wind
direction
speed
knots
gust
knots
rain 1hr
in
rain 24hr
in
rain mn
in
humidity
%
barometer
mb
20260504191857 76 320 9.6 13.0 0.00 0.00 0.00 30 999.4
20260504191354 76 303 3.5 7.0 0.00 0.00 0.00 31 999.2
20260504190849 76 294 5.2 8.7 0.00 0.00 0.00 31 999.4
20260504190346 76 226 2.6 7.0 0.00 0.00 0.00 31 999.4
20260504185842 76 240 4.3 6.1 0.00 0.00 0.00 31 999.4
20260504185339 76 237 4.3 6.1 0.00 0.00 0.00 32 999.5
20260504184835 77 317 0.0 0.0 0.00 0.00 0.00 32 999.6
20260504184332 77 188 2.6 4.3 0.00 0.00 0.00 32 999.5
20260504183827 76 215 0.9 4.3 0.00 0.00 0.00 32 999.7
20260504183325 75 187 7.0 9.6 0.00 0.00 0.00 32 1000.0
20260504182822 76 302 5.2 7.0 0.00 0.00 0.00 31 999.9
20260504182320 75 237 6.1 9.6 0.00 0.00 0.00 31 999.8
20260504181817 75 210 11.3 14.8 0.00 0.00 0.00 31 999.7
20260504181314 75 257 4.3 12.2 0.00 0.00 0.00 32 999.8
20260504180812 75 256 5.2 7.8 0.00 0.00 0.00 34 1000.3
20260504180305 75 260 2.6 5.2 0.00 0.00 0.00 34 1000.2
20260504175803 74 306 6.1 7.8 0.00 0.00 0.00 33 1000.1
20260504175259 74 254 6.1 8.7 0.00 0.00 0.00 33 1000.3
20260504174758 74 216 7.0 8.7 0.00 0.00 0.00 32 1000.1
20260504174255 74 279 8.7 11.3 0.00 0.00 0.00 33 1000.3
20260504173751 74 201 7.8 13.0 0.00 0.00 0.00 33 1000.4
20260504173248 74 247 1.7 2.6 0.00 0.00 0.00 33 1000.6
20260504172745 75 226 4.3 6.1 0.00 0.00 0.00 33 1000.6
20260504172242 75 70 0.0 0.0 0.00 0.00 0.00 34 1000.4
20260504171738 74 165 2.6 4.3 0.00 0.00 0.00 36 1000.8
20260504171235 74 252 6.1 8.7 0.00 0.00 0.00 34 1000.8
20260504170732 74 206 3.5 4.3 0.00 0.00 0.00 39 1000.8
20260504170229 74 225 2.6 2.6 0.00 0.00 0.00 38 1000.9
20260504160148 70 258 0.9 0.9 0.00 0.00 0.00 47 1002.0
20260504151115 67 251 0.0 0.9 0.00 0.00 0.00 57 1002.7
20260504150613 66 184 1.7 4.3 0.00 0.00 0.00 59 1002.9
20260504150110 66 280 4.3 6.1 0.00 0.00 0.00 58 1002.9
20260504141038 62 205 1.7 1.7 0.00 0.00 0.00 63 1003.4
20260504140535 62 262 0.9 1.7 0.00 0.00 0.00 65 1003.2
20260504130459 58 317 1.7 1.7 0.00 0.00 0.00 70 1003.5
20260504110346 48 293 0.9 0.9 0.00 0.00 0.00 86 1003.6
20260504100304 47 229 0.0 0.0 0.00 0.00 0.00 86 1004.0
20260504081657 49 313 0.0 0.0 0.00 0.00 0.00 81 1004.5
20260504081153 49 199 0.9 0.9 0.00 0.00 0.00 81 1004.7
20260504080650 49 188 0.0 0.0 0.00 0.00 0.00 80 1004.4
20260504080146 49 269 0.0 0.0 0.00 0.00 0.00 80 1004.6
20260504070114 50 220 0.9 1.7 0.00 0.00 0.00 77 1005.4
20260504050503 51 306 0.0 0.0 0.00 0.00 0.00 73 1006.5
20260504050000 51 256 1.7 1.7 0.00 0.00 0.00 72 1006.5
20260504045455 51 327 0.0 0.9 0.00 0.00 0.00 72 1006.6
20260504044952 51 133 1.7 4.3 0.00 0.00 0.00 72 1006.7
20260504044449 51 218 0.9 1.7 0.00 0.00 0.00 73 1006.6
20260504043946 51 212 2.6 2.6 0.00 0.00 0.00 72 1006.5
20260504043443 51 184 0.9 0.9 0.00 0.00 0.00 73 1006.3
20260504042941 51 201 1.7 2.6 0.00 0.00 0.00 72 1006.5
20260504042437 51 86 0.9 2.6 0.00 0.00 0.00 71 1006.4
20260504041934 51 268 2.6 4.3 0.00 0.00 0.00 72 1006.4
20260504041430 51 132 4.3 6.1 0.00 0.00 0.00 72 1006.5
20260504040926 51 216 1.7 1.7 0.00 0.00 0.00 72 1006.6
20260504040424 51 240 3.5 7.8 0.00 0.00 0.00 72 1006.7
20260504035920 51 213 0.0 0.9 0.00 0.00 0.00 72 1006.6
20260504035418 51 88 0.9 0.9 0.00 0.00 0.00 71 1006.8
20260504034914 51 115 2.6 2.6 0.00 0.00 0.00 72 1006.9
20260504034412 51 180 2.6 2.6 0.00 0.00 0.00 72 1007.0
20260504033909 52 236 2.6 2.6 0.00 0.00 0.00 71 1006.8
20260504033406 51 181 3.5 5.2 0.00 0.00 0.00 71 1007.0
20260504032902 51 207 0.9 1.7 0.00 0.00 0.00 71 1006.9
20260504032359 51 202 0.9 1.7 0.00 0.00 0.00 70 1006.8
20260504031856 52 187 0.0 0.0 0.00 0.00 0.00 70 1007.0
20260504031353 52 184 0.9 2.6 0.00 0.00 0.00 70 1007.0
20260504030849 52 61 0.9 0.9 0.00 0.00 0.00 70 1007.1
20260504030347 52 193 3.5 4.3 0.00 0.00 0.00 69 1007.3
20260504025843 52 248 0.9 1.7 0.00 0.00 0.00 70 1007.2
20260504025340 52 128 1.7 2.6 0.00 0.00 0.00 70 1007.1
20260504024837 52 234 0.9 0.9 0.00 0.00 0.00 70 1007.1
20260504024333 52 182 1.7 1.7 0.00 0.00 0.00 70 1007.4
20260504023830 52 265 0.9 0.9 0.00 0.00 0.00 69 1007.1
20260504023327 52 217 1.7 2.6 0.00 0.00 0.00 68 1007.2
20260504022822 52 234 1.7 1.7 0.00 0.00 0.00 69 1007.3
20260504022320 52 317 1.7 1.7 0.00 0.00 0.00 69 1007.3
20260504021816 52 147 0.9 1.7 0.00 0.00 0.00 68 1007.6
20260504021314 53 265 0.0 0.0 0.00 0.00 0.00 68 1007.5
20260504020810 52 180 6.1 7.0 0.00 0.00 0.00 68 1007.4
20260504020308 53 201 1.7 1.7 0.00 0.00 0.00 68 1007.4
20260504015803 53 273 1.7 2.6 0.00 0.00 0.00 67 1007.4
20260504015300 53 183 0.9 1.7 0.00 0.00 0.00 67 1007.6
20260504014755 53 267 1.7 1.7 0.00 0.00 0.00 66 1007.3
20260504014252 53 333 3.5 7.8 0.00 0.00 0.00 66 1007.5
20260504013749 53 244 0.9 1.7 0.00 0.00 0.00 66 1007.1
20260504013247 53 265 6.1 7.0 0.00 0.00 0.00 65 1007.3
20260504012743 54 309 0.0 1.7 0.00 0.00 0.00 65 1007.5
20260504012241 54 281 0.0 0.9 0.00 0.00 0.00 66 1007.4
20260504011738 54 202 2.6 4.3 0.00 0.00 0.00 65 1007.3
20260504011235 54 255 2.6 4.3 0.00 0.00 0.00 65 1007.5
20260504010731 54 233 7.0 9.6 0.00 0.00 0.00 64 1007.4
20260504010226 54 200 3.5 4.3 0.00 0.00 0.00 64 1007.6
20260504005723 55 291 3.5 4.3 0.00 0.00 0.00 64 1007.5
20260504005220 55 278 2.6 4.3 0.00 0.00 0.00 64 1007.4
20260504004718 55 211 4.3 7.0 0.00 0.00 0.00 64 1007.5
20260504004215 55 267 3.5 5.2 0.00 0.00 0.00 64 1007.5
20260504003712 55 287 6.1 7.8 0.00 0.00 0.00 64 1007.5
20260504003208 55 54 0.9 1.7 0.00 0.00 0.00 64 1007.6
20260504002705 55 264 1.7 4.3 0.00 0.00 0.00 63 1007.6
20260504002203 55 257 4.3 5.2 0.00 0.00 0.00 62 1007.6
20260504001701 55 267 4.3 7.8 0.00 0.00 0.00 61 1007.6
20260504001157 56 214 1.7 2.6 0.00 0.00 0.00 60 1007.5
20260504000654 56 261 2.6 4.3 0.00 0.00 0.00 59 1007.6
20260504000151 57 197 8.7 11.3 0.00 0.00 0.00 58 1007.6
20260503235649 57 153 2.6 4.3 0.00 0.00 0.00 58 1007.5
20260503235146 58 228 6.1 7.0 0.00 0.00 0.00 57 1007.3
20260503234644 58 306 4.3 5.2 0.00 0.00 0.00 56 1007.5
20260503234142 58 228 7.8 13.0 0.00 0.00 0.00 56 1007.4
20260503233638 58 194 3.5 5.2 0.00 0.00 0.00 55 1007.3
20260503233134 58 172 2.6 2.6 0.00 0.00 0.00 55 1007.3
20260503232631 59 291 4.3 5.2 0.00 0.00 0.00 54 1007.2
20260503232129 59 194 6.1 7.8 0.00 0.00 0.00 53 1007.4
20260503231627 59 240 3.5 5.2 0.00 0.00 0.00 53 1007.4
20260503231123 59 234 7.0 11.3 0.00 0.00 0.00 53 1007.4
20260503230620 59 200 0.9 2.6 0.00 0.00 0.00 54 1007.4
20260503230117 59 215 3.5 5.2 0.00 0.00 0.00 54 1007.5
20260503225614 59 308 3.5 4.3 0.00 0.00 0.00 55 1007.6
20260503225114 59 249 1.7 2.6 0.00 0.00 0.00 55 1007.3
20260503224611 59 288 2.6 2.6 0.00 0.00 0.00 53 1007.5
20260503224109 59 211 2.6 4.3 0.00 0.00 0.00 52 1007.4
20260503223607 60 265 3.5 4.3 0.00 0.00 0.00 51 1007.6
20260503223103 60 323 7.8 13.0 0.00 0.00 0.00 50 1007.6
20260503222601 60 292 5.2 7.8 0.00 0.00 0.00 50 1007.7
20260503222058 60 289 7.0 8.7 0.00 0.00 0.00 49 1007.7
20260503221556 60 273 8.7 13.0 0.00 0.00 0.00 48 1007.8
20260503221053 60 223 2.6 2.6 0.00 0.00 0.00 48 1007.6
20260503220549 61 246 5.2 7.0 0.00 0.00 0.00 47 1007.6
20260503220047 61 247 6.1 7.8 0.00 0.00 0.00 47 1007.9
20260503215544 61 268 4.3 6.1 0.00 0.00 0.00 48 1007.7
20260503215040 61 226 2.6 4.3 0.00 0.00 0.00 48 1007.8
20260503214539 61 210 5.2 7.0 0.00 0.00 0.00 48 1007.6
20260503214035 62 262 4.3 5.2 0.00 0.00 0.00 47 1007.6
20260503213533 62 220 0.9 0.9 0.00 0.00 0.00 47 1007.4
20260503213030 62 238 6.1 7.0 0.00 0.00 0.00 47 1007.4
20260503212527 62 119 3.5 4.3 0.00 0.00 0.00 47 1007.4
20260503212025 62 259 9.6 12.2 0.00 0.00 0.00 45 1007.7
20260503211522 63 229 6.1 7.8 0.00 0.00 0.00 46 1007.6
20260503211017 63 243 4.3 7.0 0.00 0.00 0.00 45 1007.3
20260503210514 63 225 3.5 5.2 0.00 0.00 0.00 45 1007.7
20260503210010 63 185 3.5 5.2 0.00 0.00 0.00 46 1007.4
20260503205506 62 182 6.1 7.8 0.00 0.00 0.00 45 1007.7
20260503205003 62 231 6.1 7.8 0.00 0.00 0.00 46 1007.7
20260503204500 62 194 7.8 13.0 0.00 0.00 0.00 45 1007.7
20260503203956 62 263 9.6 13.0 0.00 0.00 0.00 44 1007.8
20260503203454 62 253 5.2 6.1 0.00 0.00 0.00 45 1007.6
20260503202950 62 215 7.0 11.3 0.00 0.00 0.00 45 1007.9
20260503202449 62 200 2.6 2.6 0.00 0.00 0.00 46 1007.7
20260503201947 62 260 7.8 9.6 0.00 0.00 0.00 45 1007.8
20260503201444 62 244 2.6 5.2 0.00 0.00 0.00 47 1008.0
20260503200942 62 238 7.0 7.8 0.00 0.00 0.00 45 1008.1
20260503200438 61 231 8.7 13.0 0.00 0.00 0.00 47 1008.0
20260503195935 62 192 1.7 1.7 0.00 0.00 0.00 48 1008.4
20260503195432 62 208 3.5 6.1 0.00 0.00 0.00 46 1008.0
20260503194928 62 185 3.5 4.3 0.00 0.00 0.00 48 1008.5
20260503194425 62 217 5.2 9.6 0.00 0.00 0.00 47 1008.5
20260503193921 61 248 7.8 9.6 0.00 0.00 0.00 46 1008.4
20260503193416 61 252 5.2 7.8 0.00 0.00 0.00 47 1008.6
20260503192912 61 268 9.6 12.2 0.00 0.00 0.00 47 1008.5
20260503192409 62 198 4.3 6.1 0.00 0.00 0.00 47 1008.7